Home   Weather   Albany   Past weeks
Flag for USA

Past Weather in Albany, New York, USA — Yesterday and Last 2 Weeks

Now
71 °F

Mostly cloudy.


Feels Like: 76 °F
Forecast: 79 / 68 °F
Wind: 5 mph from South

Location: Albany County Airport

Current Time: Jun 25, 2019 at 3:55:41 am

Latest Report: Jun 25, 2019 at 2:51 am


Visibility: 10 mi

Pressure: 29.80 "Hg

Humidity: 61%

Dew Point: 57 °F

Location of AlbanyLocation

Past Weather in Albany — Graph

°F

Albany Temperature Yesterday

Maximum temperature yesterday: 84 °F (at 2:51 pm)
Minimum temperature yesterday: 57 °F (at 5:51 am)
Average temperature yesterday: 73 °F

High & Low Weather Summary for the Past Weeks

 TemperatureHumidityPressure
High84 °F (Jun 24, 2:51 pm)91% (Jun 16, 11:10 pm)30.22 "Hg (Jun 16, 11:10 pm)
Low51 °F (Jun 12, 4:51 am)30% (Jun 12, 1:51 pm)29.43 "Hg (Jun 20, 5:51 pm)
Average68 °F66%29.87 "Hg
* Reported Jun 10 1:51 am — Jun 25 1:51 am, Albany. Weather by CustomWeather, © 2019

Note: Actual official high and low records may vary slightly from our data, if they occured in-between our weather recording intervals... More about our weather records

Advertising

Albany Weather History for the Previous 24 Hours

Scroll right to see more
 ConditionsComfort  
Time TempWeatherWind HumidityBarometerVisibility
1:51 am
Tue, Jun 25
68 °FMostly cloudy.5 mph68%29.81 "Hg10 mi
12:51 am73 °FOvercast.5 mph57%29.81 "Hg10 mi
11:51 pm
Mon, Jun 24
74 °FOvercast.5 mph56%29.82 "Hg10 mi
10:51 pm74 °FPassing clouds.3 mph57%29.82 "Hg10 mi
9:51 pm75 °FMostly cloudy.5 mph54%29.82 "Hg10 mi
8:51 pm77 °FPassing clouds.6 mph48%29.81 "Hg10 mi
7:51 pm79 °FBroken clouds.5 mph42%29.80 "Hg10 mi
6:51 pm81 °FPartly sunny.8 mph37%29.80 "Hg10 mi
5:51 pm81 °FPartly sunny.6 mph42%29.81 "Hg10 mi
4:51 pm82 °FBroken clouds.6 mph40%29.82 "Hg10 mi
3:51 pm82 °FBroken clouds.No wind38%29.83 "Hg10 mi
2:51 pm84 °FPartly sunny.6 mph36%29.84 "Hg10 mi
1:51 pm83 °FPartly sunny.5 mph36%29.85 "Hg10 mi
12:51 pm81 °FPartly sunny.No wind38%29.86 "Hg10 mi
11:51 am79 °FScattered clouds.7 mph42%29.87 "Hg10 mi
10:51 am77 °FScattered clouds.3 mph42%29.88 "Hg10 mi
9:51 am74 °FScattered clouds.No wind43%29.89 "Hg10 mi
8:51 am72 °FScattered clouds.No wind48%29.90 "Hg10 mi
7:51 am66 °FScattered clouds.No wind63%29.90 "Hg10 mi
6:51 am62 °FScattered clouds.No wind73%29.87 "Hg10 mi
5:51 am57 °FScattered clouds.No wind78%29.86 "Hg10 mi
4:51 am58 °FPassing clouds.No wind72%29.87 "Hg10 mi
3:51 am59 °FPassing clouds.No wind72%29.86 "Hg10 mi
Weather by CustomWeather, © 2019

See weather overview